Weather History for KJKL - March, 2014

Change the Weather History Date:

Monday, March 24, 2014

  Actual Average Record
Temperature  
Mean Temperature 35 °F 50 °F  
Max Temperature 46 °F 61 °F 83 °F (2007)
Min Temperature 23 °F 40 °F 23 °F (2014)
Degree Days  
Heating Degree Days 30 15  
Month to date heating degree days 518 455  
Since 1 July heating degree days 4119 3755  
Cooling Degree Days 0 0  
Month to date cooling degree days 0 0  
Year to date cooling degree days 0 0  
Moisture  
Dew Point 10 °F    
Average Humidity 40    
Maximum Humidity 59    
Minimum Humidity 21    
Precipitation  
Precipitation 0.00 in 0.13 in 0.86 in (2013)
Month to date precipitation 3.64 3.19  
Year to date precipitation 11.26 10.55  
Snow  
Snow 0.00 in 0.10 in T in (2006)
Month to date snowfall 8.0 2.5  
Since 1 July snowfall 35.0 22.1  
Snow Depth 0.00 in    
Sea Level Pressure  
Sea Level Pressure 30.23 in    
Wind  
Wind Speed 4 mph (NNE)    
Max Wind Speed 9 mph    
Max Gust Speed 14 mph    
Visibility 10 miles    
Events      
T = Trace of Precipitation, MM = Missing Value Source: NWS Daily Summary

Daily Weather History Graph

Daily Weather History Graph

Search for Another Location

Airport or City:

Trip Planner

Search our weather history database for the weather conditions in past years. The results will help you decide how hot, cold, wet, or windy it might be!

Date:

Astronomy

Mar. 24, 2014 Rise Set
Actual Time 7:30 AM EDT 7:48 PM EDT
Civil Twilight 7:04 AM EDT 8:14 PM EDT
Nautical Twilight 6:33 AM EDT 8:45 PM EDT
Astronomical Twilight 6:02 AM EDT 9:16 PM EDT
Moon 2:53 AM EDT (3/24) 1:19 PM EDT (3/24)
Length of Visible Light 13h 10m
Length of Day
12h 18m
Last Quarter, 43% of the Moon is Illuminated
Mar 24
Last Quarter
Mar 30
New
Apr 7
First Quarter
Apr 15
Full
Apr 22
Last Quarter

Hourly Weather History & Observations

Time (EDT) Temp. Windchill Dew Point Humidity Pressure Visibility Wind Dir Wind Speed Gust Speed Precip Events Conditions
12:53 AM 28.0 °F 24.2 °F 10.9 °F 49% 30.29 in 10.0 mi NE 3.5 mph - N/A   Clear
1:53 AM 28.0 °F 24.2 °F 10.9 °F 49% 30.29 in 10.0 mi Variable 3.5 mph - N/A   Clear
2:53 AM 27.0 °F 23.0 °F 10.9 °F 51% 30.29 in 10.0 mi NE 3.5 mph - N/A   Clear
3:53 AM 25.0 °F 19.3 °F 10.9 °F 55% 30.28 in 10.0 mi NE 4.6 mph - N/A   Clear
4:53 AM 24.1 °F 18.2 °F 10.9 °F 57% 30.29 in 10.0 mi NE 4.6 mph - N/A   Clear
5:53 AM 23.0 °F - 10.9 °F 60% 30.30 in 10.0 mi Calm Calm - N/A   Clear
6:53 AM 23.0 °F 18.4 °F 10.0 °F 58% 30.30 in 10.0 mi Variable 3.5 mph - N/A   Clear
7:53 AM 23.0 °F 17.0 °F 10.0 °F 58% 30.31 in 10.0 mi ENE 4.6 mph - N/A   Clear
8:53 AM 26.1 °F 20.5 °F 10.9 °F 53% 30.32 in 10.0 mi Variable 4.6 mph - N/A   Clear
9:53 AM 28.9 °F 23.9 °F 12.0 °F 49% 30.31 in 10.0 mi Variable 4.6 mph - N/A   Clear
10:53 AM 32.0 °F - 10.9 °F 42% 30.32 in 10.0 mi Calm Calm - N/A   Clear
11:53 AM 34.0 °F 31.0 °F 10.9 °F 38% 30.31 in 10.0 mi Variable 3.5 mph - N/A   Clear
12:53 PM 37.0 °F 34.5 °F 10.0 °F 33% 30.28 in 10.0 mi Variable 3.5 mph - N/A   Clear
1:53 PM 39.0 °F 35.7 °F 9.0 °F 29% 30.25 in 10.0 mi WNW 4.6 mph - N/A   Clear
2:53 PM 43.0 °F 41.3 °F 9.0 °F 25% 30.20 in 10.0 mi Variable 3.5 mph - N/A   Clear
3:53 PM 46.0 °F 43.9 °F 10.0 °F 23% 30.16 in 10.0 mi Variable 4.6 mph - N/A   Clear
4:53 PM 45.0 °F 41.2 °F 8.1 °F 22% 30.14 in 10.0 mi Variable 6.9 mph - N/A   Clear
5:53 PM 46.0 °F 43.9 °F 8.1 °F 21% 30.13 in 10.0 mi Variable 4.6 mph - N/A   Clear
6:53 PM 42.1 °F - 7.0 °F 24% 30.12 in 10.0 mi Calm Calm - N/A   Clear
7:53 PM 39.0 °F 35.7 °F 9.0 °F 29% 30.13 in 10.0 mi NNE 4.6 mph - N/A   Clear
8:53 PM 37.9 °F 33.5 °F 10.0 °F 32% 30.11 in 10.0 mi NNE 5.8 mph - N/A   Mostly Cloudy
9:53 PM 37.0 °F 31.0 °F 10.9 °F 34% 30.12 in 10.0 mi NNE 8.1 mph - N/A   Mostly Cloudy
10:53 PM 36.0 °F 32.1 °F 12.0 °F 37% 30.10 in 10.0 mi NE 4.6 mph - N/A   Scattered Clouds
11:53 PM 35.1 °F - 12.9 °F 40% 30.09 in 10.0 mi Calm Calm - N/A   Overcast